Regional Weather Roundup
Issued by NWS

Home | Current Version | Previous Version | Graphics & Text | Print | Product List | Glossary On
Versions: 1 2 3 4 5 6 7 8 9 10 11 12 13 14 15 16 17 18 19 20 21 22 23 24 25 26 27 28 29 30 31 32 33 34 35 36 37 38 39 40 41 42 43 44 45 46 47 48 49 50
000
ASUS43 KLSX 242357
RWRMO

WEATHER SUMMARY FOR MISSOURI
NATIONAL WEATHER SERVICE SPRINGFIELD MO
700 PM CDT SUN SEP 24 2017

NOTE: "FAIR" INDICATES FEW OR NO CLOUDS BELOW 12,000 FEET WITH NO
       SIGNIFICANT WEATHER AND/OR OBSTRUCTIONS TO VISIBILITY.
       CURRENT SKY AND/OR WEATHER CONDITIONS ARE NOT AVAILABLE FOR
       CHILLICOTHE AND FARMINGTON.

MOZ001>031-035>038-043-044-053-054-250100-
...NORTHERN AND WESTERN MISSOURI...

CITY           SKY/WX    TMP DP  RH WIND       PRES   REMARKS
KANSAS CTY INT PTCLDY    79  68  69 SE5       29.91S
6HR MIN TEMP:  78; 6HR MAX TEMP:  87;

LEE`S SUMMIT   CLEAR     83  67  58 SE7       29.93R
6HR MIN TEMP:  83; 6HR MAX TEMP:  90;

ST JOSEPH      CLEAR     82  67  60 SE8       29.89S
6HR MIN TEMP:  82; 6HR MAX TEMP:  92;

CHILLICOTHE      N/A     82  67  60 CALM      29.92S
6HR MIN TEMP:  82; 6HR MAX TEMP:  90;


$$
MOZ066>068-077>081-088>096-101>105-250100-
...SOUTHWEST MISSOURI...

CITY           SKY/WX    TMP DP  RH WIND       PRES   REMARKS
SPRINGFIELD    CLOUDY    75  65  70 E6        29.96S
6HR MIN TEMP:  74; 6HR MAX TEMP:  90; 6HR PCP:  0.04;

JOPLIN         CLEAR     82  67  60 SE5       29.92R
6HR MIN TEMP:  82; 6HR MAX TEMP:  90;

BRANSON        MOCLDY    72  68  88 CALM      29.98R

$$
MOZ032>034-039>042-045>050-055>058-069>072-250100-
...CENTRAL MISSOURI...

CITY           SKY/WX    TMP DP  RH WIND       PRES   REMARKS
COLUMBIA       NOT AVBL
JEFFERSON CITY CLEAR     82  67  60 E3        29.92S
6HR MIN TEMP:  82; 6HR MAX TEMP:  92;

ROLLA          CLEAR     77  68  73 SW5       29.97S
6HR MIN TEMP:  77; 6HR MAX TEMP:  90; 6HR PCP: TRACE;

SEDALIA        CLEAR     83  70  64 SE6       29.95R
6HR MIN TEMP:  83; 6HR MAX TEMP:  91;

WARRENSBURG    CLEAR     81  66  61 SE3       29.92S

$$
MOZ051-052-059>065-250100-
...EAST CENTRAL MISSOURI...

CITY           SKY/WX    TMP DP  RH WIND       PRES   REMARKS
ST LOUIS INTL  PTCLDY    85  63  47 E7        29.96S
6HR MIN TEMP:  85; 6HR MAX TEMP:  92;


$$
MOZ072>076-082>087-097>100-106>115-250100-
...SOUTH CENTRAL AND SOUTHEAST MISSOURI...

CITY           SKY/WX    TMP DP  RH WIND       PRES   REMARKS
CAPE GIRARDEAU CLOUDY    77  66  68 CALM      29.97S
6HR MIN TEMP:  77; 6HR MAX TEMP:  92; 6HR PCP: TRACE;

POPLAR BLUFF   CLEAR     76  67  73 NE3       29.96S
6HR MIN TEMP:  76; 6HR MAX TEMP:  91;

WEST PLAINS    CLOUDY    73  63  70 E7        30.00F
6HR MIN TEMP:  73; 6HR MAX TEMP:  91; 6HR PCP:  0.03;


$$



USA.gov is the U.S. government's official web portal to all federal, state and local government web resources and services.